EW4652 Weather Reports


Display with metric or nautical units.
time (UTC)temp
F
wind
direction
speed
MPH
gust
MPH
rain 1hr
in
rain 24hr
in
rain mn
in
humidity
%
barometer
mb
20260904111529 72 202 0.0 1.0 0.00 0.02 0.00 92 1011.1
20260904110028 72 202 0.0 1.0 0.00 0.02 0.00 93 1011.0
20260904104527 72 202 1.0 3.0 0.00 0.21 0.00 93 1011.0
20260904103027 72 202 2.0 3.0 0.00 0.21 0.00 93 1011.0
20260904101526 72 202 0.0 1.0 0.00 0.21 0.00 93 1010.9
20260904100026 72 202 0.0 1.0 0.00 0.21 0.00 93 1011.0
20260904094539 72 202 0.0 2.0 0.00 0.22 0.00 93 1010.9
20260904093025 72 202 0.0 2.0 0.00 0.22 0.00 92 1010.9
20260904091523 72 202 0.0 1.0 0.00 0.22 0.00 92 1010.7
20260904090039 72 202 0.0 2.0 0.00 0.22 0.00 92 1010.7
20260904084522 72 203 2.0 4.0 0.00 0.22 0.00 93 1010.5
20260904083032 72 202 1.0 2.0 0.00 0.22 0.00 92 1010.4
20260904081529 72 203 0.0 0.0 0.00 0.22 0.00 93 1010.4
20260904080017 73 203 0.0 1.0 0.00 0.22 0.00 92 1010.4
20260904074518 73 203 1.0 3.0 0.00 0.22 0.00 92 1010.5
20260904073015 73 200 1.0 2.0 0.00 0.22 0.00 92 1010.4
20260904071511 74 200 1.0 3.0 0.00 0.22 0.00 92 1010.5
20260904070010 74 200 1.0 3.0 0.00 0.22 0.00 92 1010.7
20260904064508 74 200 1.0 3.0 0.00 0.22 0.00 91 1010.9
20260904063012 75 200 2.0 3.0 0.00 0.22 0.00 92 1010.9
20260904061518 75 200 1.0 3.0 0.00 0.22 0.00 92 1010.9
20260904060005 75 200 2.0 4.0 0.00 0.22 0.00 92 1010.9
20260904054509 75 200 3.0 5.0 0.00 0.22 0.00 91 1010.9
20260904053009 75 200 3.0 7.0 0.00 0.22 0.00 91 1010.8
20260904051506 75 203 3.0 7.0 0.00 0.22 0.00 92 1010.7
20260904050059 74 173 2.0 5.0 0.00 0.22 0.00 92 1010.7
20260904044558 74 173 2.0 4.0 0.00 0.22 0.22 93 1010.9
20260904043102 74 173 1.0 3.0 0.00 0.22 0.22 92 1010.9
20260904041556 74 173 1.0 2.0 0.00 0.22 0.22 92 1010.9
20260904040106 74 173 1.0 3.0 0.00 0.22 0.22 92 1010.9
20260904034555 74 173 1.0 3.0 0.00 0.22 0.22 92 1010.8
20260904033054 75 173 1.0 2.0 0.00 0.22 0.22 91 1010.8
20260904031557 75 173 0.0 2.0 0.00 0.22 0.22 90 1010.9
20260904030054 76 173 0.0 2.0 0.00 0.22 0.22 88 1010.8
20260904024553 77 173 0.0 2.0 0.00 0.22 0.22 87 1010.9
20260904023052 78 173 1.0 3.0 0.00 0.22 0.22 86 1010.8
20260904021551 77 173 2.0 7.0 0.00 0.22 0.22 86 1010.7
20260904020051 77 173 3.0 8.0 0.00 0.22 0.22 85 1010.6
20260904014556 77 176 3.0 5.0 0.00 0.22 0.22 85 1010.4
20260904013049 77 171 3.0 6.0 0.00 0.22 0.22 85 1010.3
20260904011549 76 165 2.0 5.0 0.00 0.22 0.22 87 1010.3
20260904010049 76 138 2.0 4.0 0.00 0.22 0.22 89 1010.1
20260904004547 77 137 1.0 2.0 0.00 0.22 0.22 87 1010.2
20260904003047 78 137 1.0 4.0 0.00 0.22 0.22 86 1010.1
20260904001551 79 129 3.0 5.0 0.00 0.22 0.22 85 1009.8
20260903234545 80 130 2.0 5.0 0.00 0.22 0.22 82 1009.9
20260903233044 81 175 3.0 9.0 0.00 0.22 0.22 81 1009.9
20260903231545 81 173 4.0 8.0 0.00 0.22 0.22 81 1009.8
20260903230048 81 163 5.0 7.0 0.00 0.22 0.22 80 1009.8
20260903224542 82 187 2.0 5.0 0.00 0.22 0.22 79 1009.8
20260903223042 83 170 4.0 9.0 0.00 0.22 0.22 76 1009.7
20260903221542 84 164 6.0 10.0 0.00 0.22 0.22 75 1009.6
20260903220040 84 178 6.0 10.0 0.00 0.22 0.22 74 1009.7
20260903214546 84 169 4.0 9.0 0.00 0.22 0.22 75 1009.9
20260903213045 84 197 8.0 16.0 0.00 0.22 0.22 73 1010.0
20260903211636 84 204 6.0 11.0 0.00 0.22 0.22 76 1010.0
20260903210032 83 186 6.0 12.0 0.00 0.22 0.22 75 1010.0
20260903204629 83 136 6.0 11.0 0.00 0.22 0.22 79 1010.3
20260903203025 82 130 8.0 12.0 0.00 0.22 0.22 81 1010.4
20260903201531 80 134 7.0 12.0 0.00 0.22 0.22 83 1010.3
20260903200018 79 173 4.0 10.0 0.00 0.22 0.22 87 1010.5
20260903194518 77 178 6.0 11.0 0.00 0.22 0.22 86 1010.6
20260903193014 76 157 8.0 10.0 0.00 0.22 0.22 85 1010.5
20260903191514 76 190 6.0 14.0 0.00 0.22 0.22 85 1010.8
20260903190014 77 202 7.0 12.0 0.00 0.22 0.22 83 1010.8
20260903184512 77 188 7.0 14.0 0.00 0.22 0.22 82 1011.1
20260903183011 77 188 6.0 11.0 0.00 0.22 0.22 82 1011.0
20260903181508 77 154 3.0 10.0 0.00 0.22 0.22 83 1010.6
20260903180009 75 169 4.0 11.0 0.00 0.22 0.22 85 1010.9
20260903174600 75 187 6.0 10.0 0.00 0.22 0.22 85 1011.7
20260903173058 74 224 6.0 12.0 0.00 0.22 0.22 86 1012.0
20260903171557 74 172 6.0 11.0 0.00 0.22 0.22 87 1011.5
20260903170103 73 157 8.0 16.0 0.00 0.22 0.22 86 1011.9
20260903164554 74 209 6.0 14.0 0.00 0.22 0.22 86 1012.6
20260903163053 74 187 6.0 10.0 0.00 0.22 0.22 85 1012.7
20260903161549 73 171 5.0 8.0 0.00 0.22 0.22 84 1012.4
20260903160046 73 155 4.0 7.0 0.00 0.22 0.22 85 1012.6
20260903154646 73 153 3.0 6.0 0.00 0.22 0.22 85 1012.6
20260903153056 73 223 1.0 4.0 0.00 0.22 0.22 88 1012.8
20260903151646 73 338 1.0 2.0 0.00 0.22 0.22 88 1012.8
20260903150053 72 338 1.0 4.0 0.00 0.22 0.22 85 1013.1
20260903144544 72 136 2.0 4.0 0.00 0.22 0.22 85 1012.7
20260903143053 72 138 7.0 13.0 0.00 0.22 0.22 83 1011.6
20260903141544 72 113 7.0 10.0 0.00 0.22 0.22 86 1011.5
20260903140039 72 116 5.0 8.0 0.00 0.22 0.22 87 1011.8
20260903134539 71 105 4.0 8.0 0.00 0.22 0.22 88 1012.4
20260903133038 71 105 5.0 9.0 0.00 0.22 0.22 89 1012.5
20260903131536 70 106 4.0 7.0 0.00 0.22 0.22 90 1012.8
20260903130033 70 92 2.0 8.0 0.01 0.22 0.22 89 1013.1
20260903124533 70 103 7.0 12.0 0.02 0.22 0.22 89 1012.4
20260903123030 70 85 5.0 9.0 0.02 0.22 0.22 90 1013.3
20260903121525 70 96 5.0 8.0 0.02 0.22 0.22 91 1013.8
20260903120025 70 88 2.0 6.0 0.01 0.21 0.21 89 1014.3
20260903114527 70 336 8.0 13.0 0.00 0.20 0.20 89 1014.5
20260903113028 69 13 6.0 8.0 0.07 0.20 0.20 91 1014.7